This demonstration page uses our WeatherBlox Daily Observations layout. Learn more.

Left ArrowRight Arrow

38.20091, -84.87328

Hourly Observations for July 28, 2015

Temp ( °F °C ) Dew Point ( °F °C ) Humidity (%) Winds ( mph kmh ) Pressure ( in mb ) Visibility ( mi km ) Precip ( " mm )
12:49 am 00:49 Clear with Nearby Thunderstorms 77 25 72 22 83 83 NE 3 6 29.97 1015 10 16 0.00 0.00
12:53 am 00:53 Clear with Nearby Thunderstorms 77 25 72 22.2 85 85 E 6 9 29.97 1015 10 16 0.00 0.00
1:04 am 01:04 Clear 76 24.4 72 22.2 88 88 ENE 6 9 29.97 1015 10 16 0.00 0.00
1:42 am 01:42 Mostly Cloudy 76 24.4 69 20.6 79 79 NNW 12 19 29.97 1015 9 14 0.00 0.00
1:53 am 01:53 Cloudy 76 24.4 68 20 77 77 NW 6 9 29.97 1015 10 16 0.00 0.00
2:14 am 02:14 Cloudy 74 23.3 69 20.6 85 85 SE 5 7 29.94 1014 10 16 0.00 0.03
2:53 am 02:53 Clear 74 23.3 69 20.6 85 85 Calm 29.95 1014 10 16 0.00 0.03
3:53 am 03:53 Clear 72 22.2 69 20.6 91 91 Calm 29.93 1014 10 16 0.00 0.00
4:53 am 04:53 Clear 72 22.2 69 20.6 91 91 Calm 29.94 1014 8 13 0.00 0.00
5:53 am 05:53 Clear 71 21.7 69 20.6 94 94 Calm 29.94 1014 7 11 0.00 0.00
6:53 am 06:53 Sunny with Mist and Fog 72 22.2 69 20.6 91 91 Calm 29.96 1015 6 10 0.00 0.00
7:53 am 07:53 Hazy 76 24.4 71 21.7 85 85 Calm 29.96 1015 6 10 0.00 0.00
8:53 am 08:53 Partly Cloudy 79 26.1 73 22.8 82 82 SSE 3 6 29.97 1015 7 11 0.00 0.00
9:53 am 09:53 Mostly Sunny 80 26.7 74 23.3 82 82 WSW 6 9 29.97 1015 8 13 0.00 0.00
11:53 am 11:53 Cloudy with Rain 83 28.3 75 23.9 77 77 WSW 6 9 29.96 1015 3 5 0.02 0.51
12:53 pm 12:53 Partly Cloudy 86 30 75 23.9 70 70 WSW 9 15 29.96 1015 9 14 0.00 0.03
1:53 pm 13:53 Partly Cloudy 89 31.7 75 23.9 63 63 VRB 6 9 29.96 1014 10 16 0.00 0.00
2:53 pm 14:53 Partly Cloudy 88 31.1 74 23.3 63 63 W 7 11 29.93 1014 10 16 0.00 0.00
3:48 pm 15:48 Partly Cloudy with Nearby Thunderstorms 90 32 73 23 59 59 VRB 6 9 29.91 1013 10 16 0.00 0.00
3:53 pm 15:53 Mostly Cloudy with Nearby Thunderstorms 91 32.8 73 22.8 56 56 NW 7 11 29.92 1013 10 16 0.00 0.00
4:25 pm 16:25 Mostly Cloudy with Thunderstorms 88 31.1 73 22.8 61 61 undefined N/A 29.91 1013 10 16 0.00 0.00
4:53 pm 16:53 Cloudy with Thunderstorms 77 25 71 21.7 82 82 ENE 10 17 29.96 1015 6 10 0.01 0.25
5:01 pm 17:01 Cloudy with Thunderstorms 76 24.4 71 21.7 85 85 ESE 12 19 29.94 1014 10 16 0.00 0.03
5:14 pm 17:14 Cloudy with Thunderstorms 76 24.4 71 21.7 85 85 WNW 6 9 29.97 1015 2 2 0.06 1.52
5:22 pm 17:22 Cloudy with Strong Thunderstorms 75 23.9 70 21.1 84 84 VRB 5 7 29.94 1014 1 2 0.11 2.79
5:26 pm 17:26 Cloudy with Thunderstorms 76 24.4 69 20.6 79 79 VRB 5 7 29.94 1014 2 3 0.12 3.05
5:36 pm 17:36 Cloudy with Rain 76 24.4 70 21.1 82 82 W 5 7 29.94 1014 3 4 0.14 3.56
5:43 pm 17:43 Cloudy with Light Rain 77 25 71 21.7 82 82 SW 3 6 29.94 1014 5 8 0.14 3.56
5:53 pm 17:53 Cloudy with Light Rain 77 25 72 22.2 85 85 VRB 3 6 29.94 1014 7 11 0.14 3.56
6:53 pm 18:53 Sunny 81 27.2 73 22.8 77 77 Calm 29.90 1013 10 16 0.00 0.03
7:53 pm 19:53 Mostly Sunny 82 27.8 74 23.3 77 77 ESE 3 6 29.92 1013 10 16 0.00 0.00
8:53 pm 20:53 Sunny 80 26.7 73 22.8 79 79 SW 7 11 29.92 1013 10 16 0.00 0.00
9:53 pm 21:53 Clear 77 25 74 23.3 90 90 ESE 5 7 29.94 1014 10 16 0.00 0.00
10:53 pm 22:53 Clear 76 24.4 73 22.8 91 91 ESE 3 6 29.97 1015 10 16 0.00 0.00
11:53 pm 23:53 Clear 75 23.9 73 22.8 94 94 Calm 29.98 1015 10 16 0.00 0.00

Powered by AerisWeather